Las Vegas, NM

3:44 AM MST on December 09, 2016 (GMT -0700)
Las Vegas Municipal

Weather History for KLVS - November, 2012

Change the Weather History Date:

Friday, November 16, 2012

  Actual Average Record
Temperature  
Mean Temperature 42 °F -  
Max Temperature 55 °F 54 °F 77 °F (1981)
Min Temperature 30 °F 25 °F 1 °F (2014)
Degree Days  
Heating Degree Days 22    
Moisture  
Dew Point 19 °F    
Average Humidity 44    
Maximum Humidity 67    
Minimum Humidity 22    
Precipitation  
Precipitation 0.00 in - - ()
Sea Level Pressure  
Sea Level Pressure 30.22 in    
Wind  
Wind Speed 10 mph (South)    
Max Wind Speed 25 mph    
Max Gust Speed 33 mph    
Visibility 10 miles    
Events      
Averages and records for this station are not official NWS values.
T = Trace of Precipitation, MM = Missing Value Source: NWS Daily Summary

Daily Weather History Graph

Daily Weather History Graph

Search for Another Location

Airport or City:

Trip Planner

Search our weather history database for the weather conditions in past years. The results will help you decide how hot, cold, wet, or windy it might be!

Date:

Astronomy

Nov. 16, 2012 Rise Set
Actual Time 6:37 AM MST 4:52 PM MST
Civil Twilight 6:10 AM MST 5:19 PM MST
Nautical Twilight 5:39 AM MST 5:50 PM MST
Astronomical Twilight 5:09 AM MST 6:21 PM MST
Moon 9:33 AM MST (11/16) 7:56 PM MST (11/16)
Length of Visible Light 11h 09m
Length of Day
10h 14m
Waxing Crescent, 12% of the Moon is Illuminated
Nov 16
Waxing Crescent
Nov 20
First Quarter
Nov 28
Full
Dec 6
Last Quarter
Dec 13
New

Hourly Weather History & Observations

Time (MST) Temp. Windchill Dew Point Humidity Pressure Visibility Wind Dir Wind Speed Gust Speed Precip Events Conditions
12:53 AM 33.1 °F 28.7 °F 21.0 °F 61% 30.30 in 10.0 mi West 4.6 mph - N/A   Clear
1:53 AM 30.9 °F - 21.0 °F 67% 30.29 in 10.0 mi Calm Calm - N/A   Clear
2:53 AM 32.0 °F - 19.9 °F 61% 30.28 in 10.0 mi Calm Calm - N/A   Clear
3:53 AM 32.0 °F 28.7 °F 21.0 °F 64% 30.27 in 10.0 mi South 3.5 mph - N/A   Clear
4:53 AM 32.0 °F 24.2 °F 21.0 °F 64% 30.28 in 10.0 mi South 9.2 mph - N/A   Clear
5:53 AM 32.0 °F 24.8 °F 21.0 °F 64% 30.30 in 10.0 mi South 8.1 mph - N/A   Clear
6:53 AM 32.0 °F 24.8 °F 21.0 °F 64% 30.31 in 10.0 mi South 8.1 mph - N/A   Clear
7:53 AM 37.0 °F 31.0 °F 23.0 °F 57% 30.31 in 10.0 mi South 8.1 mph - N/A   Clear
8:53 AM 42.1 °F 33.9 °F 23.0 °F 47% 30.29 in 10.0 mi SSW 17.3 mph - N/A   Clear
9:53 AM 46.9 °F - 19.0 °F 33% 30.27 in 10.0 mi SSW 21.9 mph 27.6 mph N/A   Clear
10:53 AM 50.0 °F - 18.0 °F 28% 30.27 in 10.0 mi SSW 19.6 mph 26.5 mph N/A   Clear
11:53 AM 52.0 °F - 17.1 °F 25% 30.19 in 10.0 mi SSW 21.9 mph 29.9 mph N/A   Clear
12:53 PM 53.1 °F - 15.1 °F 22% 30.14 in 10.0 mi South 23.0 mph 33.4 mph N/A   Clear
1:53 PM 53.1 °F - 19.0 °F 26% 30.13 in 10.0 mi South 25.3 mph 31.1 mph N/A   Clear
2:53 PM 55.0 °F - 17.1 °F 23% 30.11 in 10.0 mi South 24.2 mph 32.2 mph N/A   Clear
3:53 PM 54.0 °F - 18.0 °F 24% 30.12 in 10.0 mi South 21.9 mph - N/A   Clear
4:53 PM 48.0 °F - 17.1 °F 29% 30.15 in 10.0 mi South 16.1 mph - N/A   Clear
5:53 PM 42.1 °F 36.1 °F 16.0 °F 35% 30.19 in 10.0 mi SSE 10.4 mph - N/A   Clear
6:53 PM 39.9 °F 35.1 °F 16.0 °F 38% 30.22 in 10.0 mi South 6.9 mph - N/A   Clear
7:53 PM 37.0 °F 27.4 °F 16.0 °F 42% 30.21 in 10.0 mi South 17.3 mph - N/A   Clear
8:53 PM 37.0 °F 28.1 °F 16.0 °F 42% 30.19 in 10.0 mi South 15.0 mph - N/A   Clear
9:53 PM 35.1 °F 25.9 °F 16.0 °F 46% 30.17 in 10.0 mi South 13.8 mph - N/A   Clear
10:53 PM 35.1 °F 25.5 °F 16.0 °F 46% 30.15 in 10.0 mi South 15.0 mph - N/A   Clear
11:53 PM 34.0 °F 25.5 °F 16.0 °F 48% 30.15 in 10.0 mi South 11.5 mph - N/A   Clear